Back to catalog

METEOR 2-11 DEB

AlivePO
NORAD 60008·DEBRIS·🇷🇺 Russia

Launched Jul 5, 1984 from Plesetsk Cosmodrome

Loading…

Next Passes (next 24 hours)

TLE

StaleSource: Space-Track

Epoch: Aug 21, 2026, 09:06 UTC

1 60008U 84072AD  26233.37955382  .00001012  00000-0  57671-3 0  9996
2 60008  82.5052 267.9062 0031543  30.4361 329.8635 14.08649394643358

Track METEOR 2-11 DEB in real time with AllMySat

Download on the App Store